Retour au catalogue

THORAD AGENA D DEB

ActifPO
NORAD 4650·DEBRIS·🇺🇸 United States

Lancé Apr 8, 1970 depuis Vandenberg Space Force Base

Loading…

Prochains Passages (prochaines 24 heures)

TLE

FraisSource: Space-Track

Époque: Sep 14, 2026, 14:34 UTC

1 04650U 70025AJ  26257.60695301  .00000973  00000-0  53478-3 0  9990
2 04650  99.8547  33.7557 0114402 207.6736 151.8313 14.11203860870308

Suivez THORAD AGENA D DEB en temps réel avec AllMySat

Download on the App Store